C/2019 K1 ( ATLAS )

Japanese version
Home page
Updated on January 20, 2020

---------------------------------------------------------------------

* Profile

Discovery Date May 16, 2019
Magnitude 17.1 mag
Discoverer Asteroid Terrestrial-Impact Last Alert System (ATLAS) search program

* Pictures

* Orbital Elements

Epoch 2020 Feb. 1.0 TT = JDT 2458880.5
T 2020 Feb. 12.95995 TT                                 Williams
q   2.0126200            (2000.0)            P               Q
z  +0.0000939      Peri.  265.70516     +0.02608949     +0.28887181
 +/-0.0000026      Node    73.37498     +0.31731549     +0.90543520
e   0.9998110      Incl.   87.14960     -0.94796109     +0.31103084
From 170 observations 2019 May 16-Dec. 26, mean residual 0".6.

* Finding Charts

* Magnitudes Graph

        m1 = 9.5 + 5 log d + 10.0 log r

---------------------------------------------------------------------

The orbital elements are published on M.P.E.C. 2020-A105.
The charts are made with StellaNavigator Ver.10 (AstroArts).
The magnitudes graphs are made with Comet for Windows.

---------------------------------------------------------------------

Copyright(C) Seiichi Yoshida (comet@aerith.net). All rights reserved.